Regional Weather Roundup
Issued by NWS Little Rock, AR

Home | Current Version | Previous Version | Text Only | Print | Product List | Glossary On
Versions: 1 2 3 4 5 6 7 8 9 10 11 12 13 14 15 16 17 18 19 20 21 22 23 24 25 26 27 28 29 30 31 32 33 34 35 36 37
000
ASUS44 KLZK 252005
RWRLZK

WEATHER ROUNDUP FOR ARKANSAS
NATIONAL WEATHER SERVICE LITTLE ROCK AR
200 PM CST SAT FEB 25 2017

NOTE: "FAIR" INDICATES FEW OR NO CLOUDS BELOW 12,000 FEET WITH NO
SIGNIFICANT WEATHER AND/OR OBSTRUCTIONS TO VISIBILITY.

ARZ001-003-010-029-252100-
NORTHWEST ARKANSAS

CITY           SKY/WX    TMP DP  RH WIND       PRES   REMARKS
FAYETTEVILLE   SUNNY     43  15  32 MISG      30.15F HAZE
FORT SMITH     SUNNY     49  13  23 VRB3      30.18F
HARRISON       SUNNY     44  14  29 N7G17     30.13F
BENTONVILLE    SUNNY     43  14  31 NE5       30.16F
ROGERS         SUNNY     43  14  31 NW9       30.15F
SILOAM SPGS    SUNNY     43  16  33 N5        30.16F
HIGHFILL       SUNNY     44  15  31 NW9       30.15F
SPRINGDALE     SUNNY     43  14  31 N5G17     30.16F
$$

ARZ004-005-016-252100-
NORTH CENTRAL ARKANSAS

CITY           SKY/WX    TMP DP  RH WIND       PRES   REMARKS
BATESVILLE     SUNNY     46  18  31 NW10      30.15F
FLIPPIN        SUNNY     45  12  26 W8G17     30.12F
MTN HOME       SUNNY     45  14  28 N8        30.12F
$$

ARZ040-041-252100-
WEST CENTRAL ARKANSAS

CITY           SKY/WX    TMP DP  RH WIND       PRES   REMARKS
MENA           SUNNY     50  14  23 SE3       30.16F
MOUNT IDA      SUNNY     50   9  19 VRB6      30.13F
$$

ARZ009-017-025-026-028-252100-
NORTHEAST ARKANSAS

CITY           SKY/WX    TMP DP  RH WIND       PRES   REMARKS
CORNING        FAIR      45  19  36 W7G17     30.13S
JONESBORO      SUNNY     44  21  40 W12G22    30.14F
NEWPORT        SUNNY     48  18  30 MISG      30.15F
WALNUT RIDGE   SUNNY     46  18  31 W8G20     30.13F
BLYTHEVILLE    SUNNY     45  22  40 W15G21    30.13S
$$

ARZ022-023-033-042-044-252100-
CENTRAL ARKANSAS

CITY           SKY/WX    TMP DP  RH WIND       PRES   REMARKS
LITTLE ROCK    SUNNY     49  17  28 W8G20     30.18F
N LITTLE ROCK    N/A     47  20  34 NW6       30.18F
JACKSONVILLE   SUNNY     50  18  28 SW6       30.15F
SEARCY         SUNNY     51  20  29 W7        30.17F
HOT SPRINGS    SUNNY     52  17  25 VRB6      30.16F
RUSSELLVILLE   SUNNY     48  18  30 W7        30.15F
CLINTON        FAIR      48  12  23 NW10G17   30.15F
$$

ARZ036-252100-
EAST ARKANSAS

CITY           SKY/WX    TMP DP  RH WIND       PRES   REMARKS
WEST MEMPHIS   SUNNY     44  25  47 NW9       30.14S
$$

ARZ050-053-066-070-073-252100-
SOUTHWEST ARKANSAS

CITY           SKY/WX    TMP DP  RH WIND       PRES   REMARKS
ARKADELPHIA    FAIR      52  24  33 VRB6      30.19F
CAMDEN         SUNNY     55  18  22 NE6       30.18F
TEXARKANA      SUNNY     50  21  32 CALM      30.18F
EL DORADO      SUNNY     54  22  28 VRB7      30.18F
DE QUEEN       SUNNY     54  18  24 E6        30.16F
$$

ARZ056-057-069-252100-
SOUTHEAST ARKANSAS

CITY           SKY/WX    TMP DP  RH WIND       PRES   REMARKS
PINE BLUFF     SUNNY     49  21  33 VRB3      30.17F
STUTTGART      SUNNY     48  18  29 N10G16    30.18S
MONTICELLO     SUNNY     53  21  28 W10       30.16F

$$






USA.gov is the U.S. government's official web portal to all federal, state and local government web resources and services.